^^
Station Historical Data
Daily Summary for January 1, 2017 Units:  Metric    English   Both
« Previous Day
Next Day »
Daily Weekly Monthly Yearly Custom
  High: Low: Average:
Temperature: -17.8 °C -19.8 °C -18.4 °C
Dew Point: -17.8 °C -20.4 °C -19 °C
Humidity: Humidity% 91% 92%
Wind Speed: 0km/h 0km/h 0.8km/h
Wind Gust: 0km/h - -
Wind- - NW
Pressure: 0 hPa 33731.3 hPa -
Precipitation: 0 mm    
Historical Graphs
 
 
Tabular Data for January 1, 2017
Time Temperature Dew Point Pressure Wind Wind Speed Wind Gust Humidity Rainfall Rate (Hourly) solar Conditions
-17.8 °C -17.8 °C 0 hPa Calm     Humidity% 0 mm SoftwareType W/m2 Conditions
00:03 -17.2 °C -17.9 °C 33799.1 hPa Calm     92% 0 mm WeatherDisplay:10.37 W/m2 FEW
00:08 -17.3 °C -17.9 °C 33788.9 hPa Calm     92% 0 mm WeatherDisplay:10.37 W/m2 FEW
00:13 -17.3 °C -17.9 °C 33788.9 hPa Calm     92% 0 mm WeatherDisplay:10.37 W/m2 FEW
00:18 -17.3 °C -17.9 °C 33788.9 hPa Calm     92% 0 mm WeatherDisplay:10.37 W/m2 FEW
00:23 -17.3 °C -17.9 °C 33799.1 hPa Calm     92% 0 mm WeatherDisplay:10.37 W/m2 FEW
00:28 -17.3 °C -17.9 °C 33788.9 hPa Calm     92% 0 mm WeatherDisplay:10.37 W/m2 FEW
00:33 -17.2 °C -17.9 °C 33788.9 hPa Calm     92% 0 mm WeatherDisplay:10.37 W/m2 FEW
00:38 -17.2 °C -17.9 °C 33788.9 hPa Calm     91% 0 mm WeatherDisplay:10.37 W/m2 FEW
00:44 -17.2 °C -17.8 °C 33788.9 hPa Calm   3.1 km/h 92% 0 mm WeatherDisplay:10.37 W/m2 FEW
00:49 -17.2 °C -17.9 °C 33788.9 hPa Calm     92% 0 mm WeatherDisplay:10.37 W/m2 FEW
00:54 -17.2 °C -17.9 °C 33788.9 hPa Calm     92% 0 mm WeatherDisplay:10.37 W/m2 FEW
00:59 -17.2 °C -17.8 °C 33788.9 hPa Calm     92% 0 mm WeatherDisplay:10.37 W/m2 FEW
01:04 -17.1 °C -17.9 °C 33788.9 hPa Calm     91% 0 mm WeatherDisplay:10.37 W/m2 FEW
01:09 -17.1 °C -17.7 °C 33788.9 hPa Calm     92% 0 mm WeatherDisplay:10.37 W/m2 FEW
01:14 -17.1 °C -17.7 °C 33788.9 hPa Calm     92% 0 mm WeatherDisplay:10.37 W/m2 FEW
01:19 -17.1 °C -17.8 °C 33788.9 hPa Calm     91% 0 mm WeatherDisplay:10.37 W/m2 FEW
01:24 -17 °C -17.7 °C 33788.9 hPa Calm   3.1 km/h 91% 0 mm WeatherDisplay:10.37 W/m2 FEW
01:29 -17 °C -17.7 °C 33775.4 hPa Calm     92% 0 mm WeatherDisplay:10.37 W/m2 FEW
01:34 -17.1 °C -17.7 °C 33788.9 hPa Calm     92% 0 mm WeatherDisplay:10.37 W/m2 FEW
01:39 -17.1 °C -17.7 °C 33775.4 hPa Calm     92% 0 mm WeatherDisplay:10.37 W/m2 FEW
01:44 -17.2 °C -17.8 °C 33775.4 hPa Calm     92% 0 mm WeatherDisplay:10.37 W/m2 FEW
01:49 -17.2 °C -17.8 °C 33775.4 hPa Calm     92% 0 mm WeatherDisplay:10.37 W/m2 FEW
01:54 -17.3 °C -17.9 °C 33775.4 hPa Calm     92% 0 mm WeatherDisplay:10.37 W/m2 FEW
01:59 -17.3 °C -17.9 °C 33775.4 hPa Calm     92% 0 mm WeatherDisplay:10.37 W/m2 FEW
02:04 -17.3 °C -17.9 °C 33775.4 hPa Calm     92% 0 mm WeatherDisplay:10.37 W/m2 FEW
02:09 -17.3 °C -18 °C 33775.4 hPa Calm     92% 0 mm WeatherDisplay:10.37 W/m2 FEW
02:14 -17.3 °C -18 °C 33775.4 hPa Calm     92% 0 mm WeatherDisplay:10.37 W/m2 FEW
02:19 -17.4 °C -18.1 °C 33775.4 hPa Calm     92% 0 mm WeatherDisplay:10.37 W/m2 FEW
02:24 -17.4 °C -18.1 °C 33775.4 hPa Calm     92% 0 mm WeatherDisplay:10.37 W/m2 FEW
02:29 -17.5 °C -18.2 °C 33775.4 hPa Calm     92% 0 mm WeatherDisplay:10.37 W/m2 FEW
02:34 -17.6 °C -18.2 °C 33775.4 hPa Calm     92% 0 mm WeatherDisplay:10.37 W/m2 FEW
02:39 -17.6 °C -18.2 °C 33775.4 hPa Calm     92% 0 mm WeatherDisplay:10.37 W/m2 FEW
02:44 -17.6 °C -18.2 °C 33765.2 hPa Calm     92% 0 mm WeatherDisplay:10.37 W/m2 FEW
02:49 -17.6 °C -18.3 °C 33775.4 hPa Calm     92% 0 mm WeatherDisplay:10.37 W/m2 FEW
02:54 -17.6 °C -18.2 °C 33765.2 hPa West 1 km/h 9 km/h 92% 0 mm WeatherDisplay:10.37 W/m2 FEW
02:59 -17.6 °C -18.2 °C 33765.2 hPa Calm     92% 0 mm WeatherDisplay:10.37 W/m2 FEW
03:04 -17.6 °C -18.2 °C 33765.2 hPa Calm     92% 0 mm WeatherDisplay:10.37 W/m2 FEW
03:09 -17.6 °C -18.3 °C 33765.2 hPa Calm     92% 0 mm WeatherDisplay:10.37 W/m2 FEW
03:14 -17.6 °C -18.3 °C 33765.2 hPa Calm     92% 0 mm WeatherDisplay:10.37 W/m2 FEW
03:19 -17.7 °C -18.3 °C 33765.2 hPa Calm     92% 0 mm WeatherDisplay:10.37 W/m2 FEW
03:24 -17.7 °C -18.3 °C 33765.2 hPa Calm     92% 0 mm WeatherDisplay:10.37 W/m2 FEW
03:29 -17.7 °C -18.4 °C 33765.2 hPa Calm     92% 0 mm WeatherDisplay:10.37 W/m2 FEW
03:34 -17.8 °C -18.4 °C 33765.2 hPa Calm     92% 0 mm WeatherDisplay:10.37 W/m2 FEW
03:39 -17.8 °C -18.4 °C 33765.2 hPa Calm     92% 0 mm WeatherDisplay:10.37 W/m2 FEW
03:44 -17.8 °C -18.5 °C 33765.2 hPa Calm     92% 0 mm WeatherDisplay:10.37 W/m2 FEW
03:49 -17.9 °C -18.5 °C 33765.2 hPa Calm     92% 0 mm WeatherDisplay:10.37 W/m2 FEW
03:54 -17.9 °C -18.6 °C 33765.2 hPa Calm     92% 0 mm WeatherDisplay:10.37 W/m2 FEW
03:59 -17.9 °C -18.6 °C 33765.2 hPa Calm     92% 0 mm WeatherDisplay:10.37 W/m2 FEW
04:04 -17.9 °C -18.6 °C 33765.2 hPa Calm     92% 0 mm WeatherDisplay:10.37 W/m2 FEW
04:09 -18 °C -18.7 °C 33765.2 hPa Calm     92% 0 mm WeatherDisplay:10.37 W/m2 FEW
04:14 -18 °C -18.7 °C 33765.2 hPa Calm     92% 0 mm WeatherDisplay:10.37 W/m2 FEW
04:19 -18 °C -18.7 °C 33765.2 hPa Calm     92% 0 mm WeatherDisplay:10.37 W/m2 FEW
04:24 -18.1 °C -18.7 °C 33765.2 hPa Calm     92% 0 mm WeatherDisplay:10.37 W/m2 FEW
04:29 -18.1 °C -18.7 °C 33765.2 hPa Calm     92% 0 mm WeatherDisplay:10.37 W/m2 FEW
04:34 -18.1 °C -18.7 °C 33765.2 hPa Calm     92% 0 mm WeatherDisplay:10.37 W/m2 FEW
04:39 -18.1 °C -18.7 °C 33751.6 hPa Calm     92% 0 mm WeatherDisplay:10.37 W/m2 FEW
04:44 -18.2 °C -18.8 °C 33751.6 hPa Calm     92% 0 mm WeatherDisplay:10.37 W/m2 FEW
04:49 -18.2 °C -18.8 °C 33751.6 hPa Calm     92% 0 mm WeatherDisplay:10.37 W/m2 FEW
04:54 -18.2 °C -18.8 °C 33751.6 hPa Calm     92% 0 mm WeatherDisplay:10.37 W/m2 FEW
04:59 -18.2 °C -18.8 °C 33751.6 hPa Calm     92% 0 mm WeatherDisplay:10.37 W/m2 FEW
05:04 -18.2 °C -18.8 °C 33751.6 hPa Calm     92% 0 mm WeatherDisplay:10.37 W/m2 FEW
05:09 -18.2 °C -18.8 °C 33751.6 hPa Calm     92% 0 mm WeatherDisplay:10.37 W/m2 FEW
05:14 -18.2 °C -18.8 °C 33751.6 hPa Calm     92% 0 mm WeatherDisplay:10.37 W/m2 FEW
05:19 -18.2 °C -18.8 °C 33751.6 hPa Calm     92% 0 mm WeatherDisplay:10.37 W/m2 FEW
05:24 -18.2 °C -18.8 °C 33751.6 hPa Calm     92% 0 mm WeatherDisplay:10.37 W/m2 FEW
05:29 -18.2 °C -18.8 °C 33751.6 hPa Calm     92% 0 mm WeatherDisplay:10.37 W/m2 FEW
05:34 -18.2 °C -18.8 °C 33751.6 hPa Calm     92% 0 mm WeatherDisplay:10.37 W/m2 FEW
05:39 -18.2 °C -18.8 °C 33751.6 hPa Calm     92% 0 mm WeatherDisplay:10.37 W/m2 FEW
05:44 -18.2 °C -18.8 °C 33751.6 hPa Calm     92% 0 mm WeatherDisplay:10.37 W/m2 FEW
05:49 -18.2 °C -18.8 °C 33741.5 hPa Calm     92% 0 mm WeatherDisplay:10.37 W/m2 FEW
05:54 -18.3 °C -18.9 °C 33751.6 hPa Calm     92% 0 mm WeatherDisplay:10.37 W/m2 FEW
05:59 -18.3 °C -18.9 °C 33751.6 hPa Calm     92% 0 mm WeatherDisplay:10.37 W/m2 FEW
06:04 -18.3 °C -18.9 °C 33751.6 hPa Calm     92% 0 mm WeatherDisplay:10.37 W/m2 FEW
06:09 -18.3 °C -18.9 °C 33751.6 hPa Calm     92% 0 mm WeatherDisplay:10.37 W/m2 FEW
06:14 -18.4 °C -19 °C 33751.6 hPa Calm     92% 0 mm WeatherDisplay:10.37 W/m2 FEW
06:19 -18.4 °C -19 °C 33751.6 hPa Calm     92% 0 mm WeatherDisplay:10.37 W/m2 FEW
06:24 -18.4 °C -19.1 °C 33751.6 hPa Calm     92% 0 mm WeatherDisplay:10.37 W/m2 FEW
06:29 -18.4 °C -19.1 °C 33751.6 hPa Calm     92% 0 mm WeatherDisplay:10.37 W/m2 FEW
06:35 -18.5 °C -19.1 °C 33751.6 hPa Calm     92% 0 mm WeatherDisplay:10.37 W/m2 FEW
06:40 -18.6 °C -19.2 °C 33751.6 hPa Calm     92% 0 mm WeatherDisplay:10.37 W/m2 FEW
06:45 -18.6 °C -19.2 °C 33741.5 hPa Calm     92% 0 mm WeatherDisplay:10.37 W/m2 FEW
06:50 -18.6 °C -19.2 °C 33741.5 hPa Calm     92% 0 mm WeatherDisplay:10.37 W/m2 FEW
06:55 -18.6 °C -19.2 °C 33751.6 hPa Calm     92% 0 mm WeatherDisplay:10.37 W/m2 FEW
07:00 -18.7 °C -19.3 °C 33741.5 hPa Calm     92% 0 mm WeatherDisplay:10.37 W/m2 FEW
07:05 -18.7 °C -19.3 °C 33741.5 hPa Calm     92% 0 mm WeatherDisplay:10.37 W/m2 FEW
07:10 -18.7 °C -19.3 °C 33751.6 hPa Calm     92% 0 mm WeatherDisplay:10.37 W/m2 FEW
07:15 -18.7 °C -19.3 °C 33741.5 hPa Calm     92% 0 mm WeatherDisplay:10.37 W/m2 FEW
07:20 -18.7 °C -19.3 °C 33751.6 hPa Calm     92% 0 mm WeatherDisplay:10.37 W/m2 FEW
07:25 -18.7 °C -19.3 °C 33751.6 hPa Calm     92% 0 mm WeatherDisplay:10.37 W/m2 FEW
07:30 -18.7 °C -19.3 °C 33741.5 hPa Calm     92% 0 mm WeatherDisplay:10.37 W/m2 FEW
07:35 -18.7 °C -19.3 °C 33751.6 hPa Calm     92% 0 mm WeatherDisplay:10.37 W/m2 FEW
07:40 -18.7 °C -19.3 °C 33751.6 hPa Calm     92% 0 mm WeatherDisplay:10.37 W/m2 FEW
07:45 -18.7 °C -19.3 °C 33751.6 hPa Calm     92% 0 mm WeatherDisplay:10.37 W/m2 FEW
07:50 -18.6 °C -19.2 °C 33751.6 hPa Calm     92% 0 mm WeatherDisplay:10.37 W/m2 FEW
07:55 -18.6 °C -19.2 °C 33751.6 hPa Calm     92% 0 mm WeatherDisplay:10.37 W/m2 FEW
08:00 -18.7 °C -19.3 °C 33751.6 hPa Calm     92% 0 mm WeatherDisplay:10.37 W/m2 FEW
08:05 -18.7 °C -19.3 °C 33741.5 hPa Calm     92% 0 mm WeatherDisplay:10.37 W/m2 FEW
08:10 -18.7 °C -19.3 °C 33741.5 hPa Calm     92% 0 mm WeatherDisplay:10.37 W/m2 FEW
08:15 -18.7 °C -19.3 °C 33741.5 hPa Calm     92% 0 mm WeatherDisplay:10.37 W/m2 FEW
08:20 -18.7 °C -19.3 °C 33741.5 hPa Calm     92% 0 mm WeatherDisplay:10.37 W/m2 FEW
08:25 -18.7 °C -19.3 °C 33741.5 hPa Calm     92% 0 mm WeatherDisplay:10.37 W/m2 FEW
08:30 -18.7 °C -19.3 °C 33741.5 hPa Calm     92% 0 mm WeatherDisplay:10.37 W/m2 FEW
08:35 -18.7 °C -19.3 °C 33741.5 hPa Calm     92% 0 mm WeatherDisplay:10.37 W/m2 FEW
08:40 -18.7 °C -19.3 °C 33731.3 hPa Calm     92% 0 mm WeatherDisplay:10.37 W/m2 FEW
08:45 -18.7 °C -19.3 °C 33731.3 hPa Calm     92% 0 mm WeatherDisplay:10.37 W/m2 FEW
08:50 -18.8 °C -19.4 °C 33731.3 hPa Calm     92% 0 mm WeatherDisplay:10.37 W/m2 FEW
08:55 -18.8 °C -19.4 °C 33731.3 hPa Calm     92% 0 mm WeatherDisplay:10.37 W/m2 FEW
09:00 -18.8 °C -19.4 °C 33731.3 hPa Calm     92% 0 mm WeatherDisplay:10.37 W/m2 FEW
09:05 -18.7 °C -19.3 °C 33731.3 hPa Calm     92% 0 mm WeatherDisplay:10.37 W/m2 FEW
09:10 -18.7 °C -19.3 °C 33731.3 hPa Calm     92% 0 mm WeatherDisplay:10.37 W/m2 FEW
09:15 -18.7 °C -19.3 °C 33731.3 hPa Calm     92% 0 mm WeatherDisplay:10.37 W/m2 FEW
09:20 -18.7 °C -19.3 °C 33731.3 hPa Calm     92% 0 mm WeatherDisplay:10.37 W/m2 FEW
09:25 -18.7 °C -19.3 °C 33731.3 hPa Calm     92% 0 mm WeatherDisplay:10.37 W/m2 FEW
09:30 -18.8 °C -19.4 °C 33731.3 hPa Calm     92% 0 mm WeatherDisplay:10.37 W/m2 FEW
09:35 -18.8 °C -19.4 °C 33731.3 hPa Calm     92% 0 mm WeatherDisplay:10.37 W/m2 FEW
09:40 -18.8 °C -19.4 °C 33731.3 hPa Calm     92% 0 mm WeatherDisplay:10.37 W/m2 FEW
09:45 -18.7 °C -19.3 °C 33731.3 hPa Calm     92% 0 mm WeatherDisplay:10.37 W/m2 FEW
09:50 -18.7 °C -19.3 °C 33731.3 hPa Calm     92% 0 mm WeatherDisplay:10.37 W/m2 FEW
09:55 -18.7 °C -19.3 °C 33731.3 hPa Calm     92% 0 mm WeatherDisplay:10.37 W/m2 FEW
10:00 -18.7 °C -19.3 °C 33731.3 hPa Calm     92% 0 mm WeatherDisplay:10.37 W/m2 FEW
10:05 -18.6 °C -19.2 °C 33731.3 hPa Calm     92% 0 mm WeatherDisplay:10.37 W/m2 FEW
10:10 -18.6 °C -19.2 °C 33731.3 hPa Calm     92% 0 mm WeatherDisplay:10.37 W/m2 FEW
10:15 -18.5 °C -19.1 °C 33731.3 hPa Calm     92% 0 mm WeatherDisplay:10.37 W/m2 FEW
10:20 -18.5 °C -19.1 °C 33731.3 hPa Calm     92% 0 mm WeatherDisplay:10.37 W/m2 FEW
10:26 -18.5 °C -19.1 °C 33731.3 hPa Calm     92% 0 mm WeatherDisplay:10.37 W/m2 FEW
10:31 -18.4 °C -19.1 °C 33731.3 hPa Calm     92% 0 mm WeatherDisplay:10.37 W/m2 FEW
10:36 -18.4 °C -19.1 °C 33741.5 hPa Calm     92% 0 mm WeatherDisplay:10.37 W/m2 FEW
10:41 -18.4 °C -19.1 °C 33741.5 hPa Calm     92% 0 mm WeatherDisplay:10.37 W/m2 FEW
10:46 -18.4 °C -19 °C 33741.5 hPa Calm     92% 0 mm WeatherDisplay:10.37 W/m2 FEW
10:51 -18.4 °C -19 °C 33741.5 hPa Calm     92% 0 mm WeatherDisplay:10.37 W/m2 FEW
10:56 -18.3 °C -18.9 °C 33741.5 hPa Calm     92% 0 mm WeatherDisplay:10.37 W/m2 FEW
11:01 -18.3 °C -18.9 °C 33741.5 hPa Calm     92% 0 mm WeatherDisplay:10.37 W/m2 FEW
11:06 -18.3 °C -18.9 °C 33741.5 hPa Calm     92% 0 mm WeatherDisplay:10.37 W/m2 FEW
11:11 -18.3 °C -18.9 °C 33741.5 hPa Calm     92% 0 mm WeatherDisplay:10.37 W/m2 FEW
11:16 -18.2 °C -18.8 °C 33751.6 hPa Calm     92% 0 mm WeatherDisplay:10.37 W/m2 FEW
11:21 -18.2 °C -18.8 °C 33751.6 hPa Calm     92% 0 mm WeatherDisplay:10.37 W/m2 FEW
11:26 -18.2 °C -18.8 °C 33741.5 hPa Calm     92% 0 mm WeatherDisplay:10.37 W/m2 FEW
11:31 -18.2 °C -18.8 °C 33741.5 hPa Calm     92% 0 mm WeatherDisplay:10.37 W/m2 FEW
11:36 -18.2 °C -18.8 °C 33741.5 hPa Calm     92% 0 mm WeatherDisplay:10.37 W/m2 FEW
11:41 -18.2 °C -18.8 °C 33741.5 hPa Calm     92% 0 mm WeatherDisplay:10.37 W/m2 FEW
11:46 -18.1 °C -18.7 °C 33741.5 hPa Calm     92% 0 mm WeatherDisplay:10.37 W/m2 FEW
11:51 -18.1 °C -18.7 °C 33741.5 hPa Calm     92% 0 mm WeatherDisplay:10.37 W/m2 FEW
11:56 -18.1 °C -18.7 °C 33741.5 hPa Calm     92% 0 mm WeatherDisplay:10.37 W/m2 FEW
12:01 -18.1 °C -18.7 °C 33731.3 hPa Calm     92% 0 mm WeatherDisplay:10.37 W/m2 FEW
12:06 -18 °C -18.7 °C 33741.5 hPa Calm     92% 0 mm WeatherDisplay:10.37 W/m2 FEW
12:11 -18 °C -18.7 °C 33731.3 hPa Calm     92% 0 mm WeatherDisplay:10.37 W/m2 FEW
12:16 -18 °C -18.7 °C 33731.3 hPa Calm     92% 0 mm WeatherDisplay:10.37 W/m2 FEW
12:21 -17.9 °C -18.6 °C 33731.3 hPa Calm     92% 0 mm WeatherDisplay:10.37 W/m2 FEW
12:26 -17.9 °C -18.6 °C 33731.3 hPa Calm     92% 0 mm WeatherDisplay:10.37 W/m2 FEW
12:31 -17.9 °C -18.6 °C 33731.3 hPa Calm     92% 0 mm WeatherDisplay:10.37 W/m2 FEW
12:36 -17.9 °C -18.6 °C 33731.3 hPa WNW 0.3 km/h 6 km/h 92% 0 mm WeatherDisplay:10.37 W/m2 FEW
12:41 -17.9 °C -18.6 °C 33731.3 hPa Calm     92% 0 mm WeatherDisplay:10.37 W/m2 FEW
12:46 -17.9 °C -18.5 °C 33731.3 hPa Calm     92% 0 mm WeatherDisplay:10.37 W/m2 FEW
12:51 -17.9 °C -18.5 °C 33731.3 hPa Calm     92% 0 mm WeatherDisplay:10.37 W/m2 FEW
12:56 -17.9 °C -18.5 °C 33731.3 hPa Calm     92% 0 mm WeatherDisplay:10.37 W/m2 FEW
13:01 -17.9 °C -18.5 °C 33731.3 hPa Calm     92% 0 mm WeatherDisplay:10.37 W/m2 FEW
13:06 -17.9 °C -18.6 °C 33741.5 hPa Calm     92% 0 mm WeatherDisplay:10.37 W/m2 FEW
13:11 -17.9 °C -18.6 °C 33741.5 hPa Calm     92% 0 mm WeatherDisplay:10.37 W/m2 FEW
13:16 -17.9 °C -18.6 °C 33731.3 hPa Calm     92% 0 mm WeatherDisplay:10.37 W/m2 FEW
13:21 -17.9 °C -18.6 °C 33731.3 hPa Calm     92% 0 mm WeatherDisplay:10.37 W/m2 FEW
13:26 -18 °C -18.7 °C 33731.3 hPa Calm     92% 0 mm WeatherDisplay:10.37 W/m2 FEW
13:31 -18.1 °C -18.7 °C 33741.5 hPa Calm     92% 0 mm WeatherDisplay:10.37 W/m2 FEW
13:36 -18.1 °C -18.7 °C 33731.3 hPa Calm     92% 0 mm WeatherDisplay:10.37 W/m2 FEW
13:41 -18.2 °C -18.8 °C 33731.3 hPa Calm     92% 0 mm WeatherDisplay:10.37 W/m2 FEW
13:46 -18.2 °C -18.8 °C 33731.3 hPa Calm     92% 0 mm WeatherDisplay:10.37 W/m2 FEW
13:51 -18.2 °C -18.8 °C 33731.3 hPa Calm     92% 0 mm WeatherDisplay:10.37 W/m2 FEW
13:56 -18.3 °C -18.9 °C 33731.3 hPa Calm     92% 0 mm WeatherDisplay:10.37 W/m2 FEW
14:01 -18.4 °C -19 °C 33741.5 hPa Calm     92% 0 mm WeatherDisplay:10.37 W/m2 FEW
14:06 -18.4 °C -19.1 °C 33741.5 hPa Calm     92% 0 mm WeatherDisplay:10.37 W/m2 FEW
14:11 -18.4 °C -19.1 °C 33741.5 hPa Calm     92% 0 mm WeatherDisplay:10.37 W/m2 FEW
14:16 -18.5 °C -19.1 °C 33731.3 hPa Calm     92% 0 mm WeatherDisplay:10.37 W/m2 FEW
14:21 -18.5 °C -19.1 °C 33731.3 hPa Calm     92% 0 mm WeatherDisplay:10.37 W/m2 FEW
14:26 -18.6 °C -19.2 °C 33741.5 hPa Calm     92% 0 mm WeatherDisplay:10.37 W/m2 FEW
14:31 -18.6 °C -19.2 °C 33741.5 hPa Calm     92% 0 mm WeatherDisplay:10.37 W/m2 FEW
14:36 -18.6 °C -19.2 °C 33731.3 hPa Calm     92% 0 mm WeatherDisplay:10.37 W/m2 FEW
14:41 -18.7 °C -19.3 °C 33731.3 hPa Calm     92% 0 mm WeatherDisplay:10.37 W/m2 FEW
14:46 -18.7 °C -19.3 °C 33731.3 hPa Calm     92% 0 mm WeatherDisplay:10.37 W/m2 FEW
14:51 -18.7 °C -19.3 °C 33741.5 hPa Calm     92% 0 mm WeatherDisplay:10.37 W/m2 FEW
14:56 -18.7 °C -19.3 °C 33731.3 hPa Calm     92% 0 mm WeatherDisplay:10.37 W/m2 FEW
15:01 -18.8 °C -19.4 °C 33741.5 hPa Calm     92% 0 mm WeatherDisplay:10.37 W/m2 FEW
15:06 -18.8 °C -19.4 °C 33741.5 hPa Calm     92% 0 mm WeatherDisplay:10.37 W/m2 FEW
15:11 -18.8 °C -19.4 °C 33741.5 hPa Calm     92% 0 mm WeatherDisplay:10.37 W/m2 FEW
15:16 -18.8 °C -19.4 °C 33741.5 hPa Calm     92% 0 mm WeatherDisplay:10.37 W/m2 FEW
15:21 -18.8 °C -19.4 °C 33741.5 hPa Calm     92% 0 mm WeatherDisplay:10.37 W/m2 FEW
15:26 -18.8 °C -19.5 °C 33741.5 hPa Calm     92% 0 mm WeatherDisplay:10.37 W/m2 FEW
15:31 -18.9 °C -19.5 °C 33741.5 hPa Calm     92% 0 mm WeatherDisplay:10.37 W/m2 FEW
15:36 -18.9 °C -19.6 °C 33741.5 hPa Calm     92% 0 mm WeatherDisplay:10.37 W/m2 FEW
15:41 -19 °C -19.6 °C 33741.5 hPa Calm     92% 0 mm WeatherDisplay:10.37 W/m2 FEW
15:46 -19 °C -19.6 °C 33741.5 hPa Calm     92% 0 mm WeatherDisplay:10.37 W/m2 FEW
15:51 -19 °C -19.6 °C 33741.5 hPa Calm     92% 0 mm WeatherDisplay:10.37 W/m2 FEW
15:56 -19 °C -19.6 °C 33741.5 hPa Calm     92% 0 mm WeatherDisplay:10.37 W/m2 FEW
16:01 -19.1 °C -19.7 °C 33741.5 hPa Calm     92% 0 mm WeatherDisplay:10.37 W/m2 FEW
16:06 -19.1 °C -19.7 °C 33741.5 hPa Calm     92% 0 mm WeatherDisplay:10.37 W/m2 FEW
16:11 -19.1 °C -19.7 °C 33741.5 hPa Calm     92% 0 mm WeatherDisplay:10.37 W/m2 FEW
16:16 -19.1 °C -19.8 °C 33741.5 hPa Calm     92% 0 mm WeatherDisplay:10.37 W/m2 FEW
16:21 -19.2 °C -19.8 °C 33751.6 hPa Calm     92% 0 mm WeatherDisplay:10.37 W/m2 FEW
16:26 -19.2 °C -19.8 °C 33751.6 hPa Calm     92% 0 mm WeatherDisplay:10.37 W/m2 FEW
16:32 -19.2 °C -19.8 °C 33741.5 hPa Calm     92% 0 mm WeatherDisplay:10.37 W/m2 FEW
16:37 -19.2 °C -19.8 °C 33741.5 hPa Calm     92% 0 mm WeatherDisplay:10.37 W/m2 FEW
16:42 -19.2 °C -19.8 °C 33741.5 hPa Calm     92% 0 mm WeatherDisplay:10.37 W/m2 FEW
16:47 -19.1 °C -19.7 °C 33751.6 hPa Calm     92% 0 mm WeatherDisplay:10.37 W/m2 FEW
16:52 -19.1 °C -19.7 °C 33741.5 hPa Calm     92% 0 mm WeatherDisplay:10.37 W/m2 FEW
16:57 -19.1 °C -19.7 °C 33751.6 hPa Calm     92% 0 mm WeatherDisplay:10.37 W/m2 FEW
17:02 -19.1 °C -19.7 °C 33751.6 hPa Calm     92% 0 mm WeatherDisplay:10.37 W/m2 FEW
17:07 -19.1 °C -19.7 °C 33751.6 hPa Calm     92% 0 mm WeatherDisplay:10.37 W/m2 FEW
17:12 -19 °C -19.6 °C 33751.6 hPa Calm     92% 0 mm WeatherDisplay:10.37 W/m2 FEW
17:17 -19 °C -19.6 °C 33751.6 hPa Calm     92% 0 mm WeatherDisplay:10.37 W/m2 FEW
17:22 -19 °C -19.6 °C 33751.6 hPa Calm     92% 0 mm WeatherDisplay:10.37 W/m2 FEW
17:27 -19.1 °C -19.7 °C 33751.6 hPa Calm     92% 0 mm WeatherDisplay:10.37 W/m2 FEW
17:32 -19.1 °C -19.7 °C 33751.6 hPa WNW 0.3 km/h 3.1 km/h 92% 0 mm WeatherDisplay:10.37 W/m2 FEW
17:37 -19 °C -19.6 °C 33751.6 hPa Calm   6 km/h 92% 0 mm WeatherDisplay:10.37 W/m2 FEW
17:42 -18.9 °C -19.6 °C 33751.6 hPa Calm     92% 0 mm WeatherDisplay:10.37 W/m2 FEW
17:47 -18.9 °C -19.5 °C 33765.2 hPa Calm     92% 0 mm WeatherDisplay:10.37 W/m2 FEW
17:52 -18.8 °C -19.5 °C 33765.2 hPa Calm     92% 0 mm WeatherDisplay:10.37 W/m2 FEW
17:57 -18.8 °C -19.5 °C 33765.2 hPa Calm     92% 0 mm WeatherDisplay:10.37 W/m2 FEW
18:02 -18.8 °C -19.5 °C 33765.2 hPa Calm     92% 0 mm WeatherDisplay:10.37 W/m2 FEW
18:07 -18.9 °C -19.6 °C 33765.2 hPa Calm     92% 0 mm WeatherDisplay:10.37 W/m2 FEW
18:12 -18.8 °C -19.5 °C 33765.2 hPa WNW 3.7 km/h 9 km/h 92% 0 mm WeatherDisplay:10.37 W/m2 FEW
18:17 -18.7 °C -19.3 °C 33765.2 hPa NNW 0.5 km/h 9 km/h 92% 0 mm WeatherDisplay:10.37 W/m2 FEW
18:22 -18.7 °C -19.3 °C 33775.4 hPa NNW 4.2 km/h 7.7 km/h 92% 0 mm WeatherDisplay:10.37 W/m2 FEW
18:27 -18.6 °C -19.2 °C 33775.4 hPa NNW 4.2 km/h 9 km/h 92% 0 mm WeatherDisplay:10.37 W/m2 FEW
18:32 -18.6 °C -19.2 °C 33775.4 hPa NNW 1.8 km/h 6 km/h 92% 0 mm WeatherDisplay:10.37 W/m2 FEW
18:37 -18.6 °C -19.2 °C 33775.4 hPa NNW 4.2 km/h 9 km/h 92% 0 mm WeatherDisplay:10.37 W/m2 FEW
18:42 -18.5 °C -19.1 °C 33788.9 hPa NNW 2.9 km/h 9 km/h 92% 0 mm WeatherDisplay:10.37 W/m2 FEW
18:47 -18.4 °C -19.1 °C 33788.9 hPa NNW 4.3 km/h 9 km/h 92% 0 mm WeatherDisplay:10.37 W/m2 FEW
18:52 -18.4 °C -19.1 °C 33775.4 hPa NNW 5.1 km/h 9 km/h 92% 0 mm WeatherDisplay:10.37 W/m2 FEW
18:57 -18.4 °C -19 °C 33775.4 hPa Calm   6 km/h 92% 0 mm WeatherDisplay:10.37 W/m2 FEW
19:02 -18.4 °C -19 °C 33775.4 hPa NNW 1 km/h 15 km/h 92% 0 mm WeatherDisplay:10.37 W/m2 FEW
19:07 -18.3 °C -18.9 °C 33788.9 hPa NNW 5.6 km/h 9 km/h 92% 0 mm WeatherDisplay:10.37 W/m2 FEW
19:12 -18.3 °C -18.9 °C 33788.9 hPa NNW 0.3 km/h 6 km/h 92% 0 mm WeatherDisplay:10.37 W/m2 FEW
19:16 -18.3 °C -18.9 °C 33788.9 hPa NNW 0.3 km/h 6 km/h 92% 0 mm WeatherDisplay:10.37 W/m2 FEW
19:21 -18.2 °C -18.8 °C 33788.9 hPa Calm     92% 0 mm WeatherDisplay:10.37 W/m2 FEW
19:26 -18.2 °C -18.8 °C 33788.9 hPa Calm     92% 0 mm WeatherDisplay:10.37 W/m2 FEW
19:31 -18.2 °C -18.8 °C 33788.9 hPa Calm     92% 0 mm WeatherDisplay:10.37 W/m2 FEW
19:36 -18.2 °C -18.8 °C 33788.9 hPa Calm     92% 0 mm WeatherDisplay:10.37 W/m2 FEW
19:41 -18.2 °C -18.8 °C 33799.1 hPa NNW 1.3 km/h 6 km/h 92% 0 mm WeatherDisplay:10.37 W/m2 FEW
19:46 -18.2 °C -18.8 °C 33799.1 hPa Calm     92% 0 mm WeatherDisplay:10.37 W/m2 FEW
19:51 -18.2 °C -18.8 °C 33799.1 hPa WNW 5.6 km/h 15 km/h 92% 0 mm WeatherDisplay:10.37 W/m2 FEW
19:56 -18.2 °C -18.8 °C 33799.1 hPa Calm     92% 0 mm WeatherDisplay:10.37 W/m2 FEW
20:01 -18.2 °C -18.8 °C 33799.1 hPa Calm   3.1 km/h 92% 0 mm WeatherDisplay:10.37 W/m2 FEW
20:06 -18.2 °C -18.8 °C 33799.1 hPa WNW 0.5 km/h 6 km/h 92% 0 mm WeatherDisplay:10.37 W/m2 FEW
20:11 -18.2 °C -18.8 °C 33799.1 hPa NW 9.8 km/h 23.8 km/h 92% 0 mm WeatherDisplay:10.37 W/m2 FEW
20:16 -18.3 °C -18.9 °C 33799.1 hPa North 6.4 km/h 9 km/h 92% 0 mm WeatherDisplay:10.37 W/m2 FEW
20:21 -18.3 °C -18.9 °C 33799.1 hPa NNW 1.6 km/h 9 km/h 92% 0 mm WeatherDisplay:10.37 W/m2 FEW
20:26 -18.4 °C -18.9 °C 33809.2 hPa NW 7.6 km/h 11.9 km/h 93% 0 mm WeatherDisplay:10.37 W/m2 FEW
20:31 -18.4 °C -19 °C 33809.2 hPa NNW 6.3 km/h 11.9 km/h 92% 0 mm WeatherDisplay:10.37 W/m2 FEW
20:36 -18.4 °C -19 °C 33822.8 hPa North 5.6 km/h 17.9 km/h 93% 0 mm WeatherDisplay:10.37 W/m2 FEW
20:41 -18.5 °C -19.1 °C 33822.8 hPa NW 8.9 km/h 8.9 km/h 93% 0 mm WeatherDisplay:10.37 W/m2 FEW
20:46 -18.6 °C -19.1 °C 33822.8 hPa NW 9.8 km/h 15 km/h 93% 0 mm WeatherDisplay:10.37 W/m2 FEW
20:51 -18.6 °C -19.2 °C 33822.8 hPa North 6.8 km/h 15 km/h 92% 0 mm WeatherDisplay:10.37 W/m2 FEW
20:56 -18.6 °C -19.2 °C 33822.8 hPa NW 3.9 km/h 9 km/h 92% 0 mm WeatherDisplay:10.37 W/m2 FEW
21:01 -18.7 °C -19.3 °C 33822.8 hPa NNW 7.6 km/h 11.9 km/h 92% 0 mm WeatherDisplay:10.37 W/m2 FEW
21:06 -18.7 °C -19.3 °C 33822.8 hPa NNW 9.3 km/h 15 km/h 92% 0 mm WeatherDisplay:10.37 W/m2 FEW
21:11 -18.7 °C -19.3 °C 33832.9 hPa NNW 3.9 km/h 9 km/h 92% 0 mm WeatherDisplay:10.37 W/m2 FEW
21:16 -18.7 °C -19.3 °C 33832.9 hPa NNW 8 km/h 20.9 km/h 92% 0 mm WeatherDisplay:10.37 W/m2 FEW
21:21 -18.7 °C -19.3 °C 33832.9 hPa NNW 6.8 km/h 11.9 km/h 92% 0 mm WeatherDisplay:10.37 W/m2 FEW
21:26 -18.8 °C -19.4 °C 33832.9 hPa NNW 6.3 km/h 9 km/h 92% 0 mm WeatherDisplay:10.37 W/m2 FEW
21:31 -18.8 °C -19.5 °C 33832.9 hPa NNW 0.5 km/h 15 km/h 91% 0 mm WeatherDisplay:10.37 W/m2 FEW
21:36 -18.8 °C -19.5 °C 33832.9 hPa NNW 3.1 km/h 9 km/h 91% 0 mm WeatherDisplay:10.37 W/m2 FEW
21:41 -18.8 °C -19.6 °C 33843.1 hPa Calm   3.1 km/h 91% 0 mm WeatherDisplay:10.37 W/m2 FEW
21:46 -18.8 °C -19.6 °C 33843.1 hPa NNW 6.9 km/h 9 km/h 91% 0 mm WeatherDisplay:10.37 W/m2 FEW
21:51 -18.8 °C -19.6 °C 33843.1 hPa NNW 3.1 km/h 11.9 km/h 91% 0 mm WeatherDisplay:10.37 W/m2 FEW
21:56 -18.9 °C -19.6 °C 33843.1 hPa NNW 1.6 km/h 9 km/h 91% 0 mm WeatherDisplay:10.37 W/m2 FEW
22:01 -18.9 °C -19.6 °C 33843.1 hPa NNW 3.4 km/h 10.3 km/h 91% 0 mm WeatherDisplay:10.37 W/m2 FEW
22:06 -19 °C -19.7 °C 33843.1 hPa NW 1.3 km/h   91% 0 mm WeatherDisplay:10.37 W/m2 FEW
22:11 -19 °C -19.7 °C 33843.1 hPa Calm     91% 0 mm WeatherDisplay:10.37 W/m2 FEW
22:16 -19.1 °C -19.8 °C 33843.1 hPa Calm     91% 0 mm WeatherDisplay:10.37 W/m2 FEW
22:21 -19.1 °C -19.8 °C 33843.1 hPa Calm     91% 0 mm WeatherDisplay:10.37 W/m2 FEW
22:26 -19.2 °C -19.9 °C 33856.6 hPa Calm     91% 0 mm WeatherDisplay:10.37 W/m2 FEW
22:31 -19.2 °C -19.9 °C 33843.1 hPa Calm     91% 0 mm WeatherDisplay:10.37 W/m2 FEW
22:36 -19.3 °C -19.9 °C 33856.6 hPa NW 0.3 km/h 5.1 km/h 91% 0 mm WeatherDisplay:10.37 W/m2 FEW
22:41 -19.3 °C -20.1 °C 33856.6 hPa NW 5.5 km/h 9 km/h 91% 0 mm WeatherDisplay:10.37 W/m2 FEW
22:46 -19.3 °C -20.1 °C 33856.6 hPa NW 0.8 km/h 6 km/h 91% 0 mm WeatherDisplay:10.37 W/m2 FEW
22:51 -19.3 °C -20.1 °C 33856.6 hPa NW 3.7 km/h 9 km/h 91% 0 mm WeatherDisplay:10.37 W/m2 FEW
22:56 -19.4 °C -20.1 °C 33856.6 hPa Calm     91% 0 mm WeatherDisplay:10.37 W/m2 FEW
23:01 -19.4 °C -20.1 °C 33856.6 hPa Calm   9 km/h 92% 0 mm WeatherDisplay:10.37 W/m2 FEW
23:06 -19.5 °C -20.1 °C 33856.6 hPa Calm     92% 0 mm WeatherDisplay:10.37 W/m2 FEW
23:11 -19.5 °C -20.1 °C 33856.6 hPa NW 3.9 km/h 9 km/h 92% 0 mm WeatherDisplay:10.37 W/m2 FEW
23:17 -19.6 °C -20.2 °C 33856.6 hPa NNW 4.3 km/h 9 km/h 92% 0 mm WeatherDisplay:10.37 W/m2 FEW
23:22 -19.6 °C -20.2 °C 33866.8 hPa NNW 4.3 km/h 6 km/h 92% 0 mm WeatherDisplay:10.37 W/m2 FEW
23:27 -19.6 °C -20.2 °C 33856.6 hPa North 6.8 km/h 20.8 km/h 92% 0 mm WeatherDisplay:10.37 W/m2 FEW
23:32 -19.6 °C -20.2 °C 33866.8 hPa NNW 9 km/h 11.9 km/h 92% 0 mm WeatherDisplay:10.37 W/m2 FEW
23:37 -19.7 °C -20.3 °C 33866.8 hPa NNW 7.7 km/h 15.6 km/h 92% 0 mm WeatherDisplay:10.37 W/m2 FEW
23:42 -19.7 °C -20.3 °C 33866.8 hPa North 6.4 km/h 10.3 km/h 92% 0 mm WeatherDisplay:10.37 W/m2 FEW
23:47 -19.8 °C -20.4 °C 33866.8 hPa NNW 6.9 km/h 11.9 km/h 92% 0 mm WeatherDisplay:10.37 W/m2 FEW
23:52 -19.8 °C -20.4 °C 33866.8 hPa NNW 6 km/h 9 km/h 92% 0 mm WeatherDisplay:10.37 W/m2 FEW
23:57 -19.8 °C -20.4 °C 33866.8 hPa NNW 7.6 km/h 10.3 km/h 92% 0 mm WeatherDisplay:10.37 W/m2 FEW
Tuulensuunkaari, Veikkola, Suomi
Compliments of Weather Underground - 2.75 mb